Weather History for KFCM - October, 2012

Change the Weather History Date:

Monday, October 29, 2012

  Actual Average Record
Temperature  
Mean Temperature 39 °F -  
Max Temperature 46 °F 50 °F 75 °F (2004)
Min Temperature 32 °F 34 °F 26 °F (2006)
Degree Days  
Heating Degree Days 26    
Moisture  
Dew Point 24 °F    
Average Humidity 56    
Maximum Humidity 67    
Minimum Humidity 49    
Precipitation  
Precipitation 0.00 in - - ()
Sea Level Pressure  
Sea Level Pressure 30.30 in    
Wind  
Wind Speed 7 mph (ESE)    
Max Wind Speed 12 mph    
Max Gust Speed -    
Visibility 10 miles    
Events      
Averages and records for this station are not official NWS values.
T = Trace of Precipitation, MM = Missing Value Source: NWS Daily Summary

Daily Weather History Graph

Daily Weather History Graph

Search for Another Location

Airport or City:

Trip Planner

Search our weather history database for the weather conditions in past years. The results will help you decide how hot, cold, wet, or windy it might be!

Date:

Astronomy

Oct. 29, 2012 Rise Set
Actual Time 7:48 AM CDT 6:05 PM CDT
Civil Twilight 7:18 AM CDT 6:36 PM CDT
Nautical Twilight 6:43 AM CDT 7:10 PM CDT
Astronomical Twilight 6:09 AM CDT 7:44 PM CDT
Moon 5:56 PM CDT (10/29) 7:40 AM CDT (10/29)
Length of Visible Light 11h 17m
Length of Day
10h 17m
Full, 100% of the Moon is Illuminated
Oct 29
Full
Oct 29
Full
Nov 6
Last Quarter
Nov 13
New
Nov 20
First Quarter

Hourly Weather History & Observations

Time (CDT) Temp. Windchill Dew Point Humidity Pressure Visibility Wind Dir Wind Speed Gust Speed Precip Events Conditions
12:53 AM 34.0 °F 28.0 °F 21.9 °F 61% 30.32 in 10.0 mi SE 6.9 mph - N/A   Clear
1:53 AM 32.0 °F 25.6 °F 21.0 °F 64% 30.32 in 10.0 mi SSE 6.9 mph - N/A   Clear
2:53 AM 35.1 °F 30.1 °F 21.0 °F 57% 30.32 in 10.0 mi ESE 5.8 mph - N/A   Mostly Cloudy
3:53 AM 34.0 °F 28.0 °F 21.0 °F 59% 30.32 in 10.0 mi SE 6.9 mph - N/A   Overcast
4:53 AM 34.0 °F 27.2 °F 21.0 °F 59% 30.31 in 10.0 mi ESE 8.1 mph - N/A   Clear
5:53 AM 34.0 °F 28.8 °F 21.0 °F 59% 30.32 in 10.0 mi ESE 5.8 mph - N/A   Clear
6:53 AM 35.1 °F 29.3 °F 19.9 °F 54% 30.32 in 10.0 mi ESE 6.9 mph - N/A   Partly Cloudy
7:53 AM 35.1 °F 30.1 °F 21.0 °F 57% 30.32 in 10.0 mi ESE 5.8 mph - N/A   Partly Cloudy
8:53 AM 35.1 °F 31.0 °F 21.9 °F 59% 30.33 in 10.0 mi East 4.6 mph - N/A   Overcast
9:53 AM 37.0 °F 30.4 °F 23.0 °F 57% 30.33 in 10.0 mi SE 9.2 mph - N/A   Overcast
10:53 AM 41.0 °F 35.8 °F 24.1 °F 51% 30.33 in 10.0 mi SSE 8.1 mph - N/A   Overcast
11:53 AM 42.1 °F 37.7 °F 25.0 °F 51% 30.34 in 10.0 mi ESE 6.9 mph - N/A   Overcast
12:53 PM 42.1 °F 37.7 °F 26.1 °F 53% 30.32 in 10.0 mi ESE 6.9 mph - N/A   Overcast
1:53 PM 44.1 °F 40.1 °F 28.0 °F 53% 30.31 in 10.0 mi ESE 6.9 mph - N/A   Overcast
3:53 PM 46.0 °F 40.6 °F 28.0 °F 50% 30.28 in 10.0 mi SE 11.5 mph - N/A   Overcast
4:53 PM 46.0 °F 41.4 °F 28.0 °F 50% 30.28 in 10.0 mi ESE 9.2 mph - N/A   Overcast
5:53 PM 45.0 °F 40.6 °F 28.0 °F 52% 30.26 in 10.0 mi East 8.1 mph - N/A   Overcast
6:53 PM 44.1 °F 39.5 °F 26.1 °F 49% 30.26 in 10.0 mi ESE 8.1 mph - N/A   Overcast
7:53 PM 42.1 °F 38.4 °F 26.1 °F 53% 30.27 in 10.0 mi East 5.8 mph - N/A   Mostly Cloudy
8:53 PM 41.0 °F 38.0 °F 26.1 °F 55% 30.27 in 10.0 mi East 4.6 mph - N/A   Mostly Cloudy
9:53 PM 39.9 °F 36.7 °F 25.0 °F 55% 30.27 in 10.0 mi East 4.6 mph - N/A   Overcast
10:53 PM 39.9 °F - 25.0 °F 55% 30.26 in 10.0 mi Calm Calm - N/A   Overcast
11:53 PM 36.0 °F 33.3 °F 26.1 °F 67% 30.25 in 10.0 mi ENE 3.5 mph - N/A   Clear